[[{"header":{"parameterUnit":"m.s-1","parameterCategory":2,"la1":30.2991,"la2":30.254,"lo1":-89.0895,"lo2":-89.0444,"dy":0.0017,"dx":0.0017,"nx":28,"ny":28,"refTime":"2023-08-10T03:00:00:Z","depth":"0","parameterNumber":2,"parameterNumberName":"U-component_of_CURRENTS"},"data":[0,0,0,0,0,0,0,0,0,0,0,0,0,0,0,0,0,0,0,0,0,0,0,0,0,0,0,0,0,0,0,0,0,0,0,0,0,0,0,0,0,0,0,0,0,0,0,0,0,0,0,0,0,0,0,0,0,0,0.5359,0.5359,0,0.5349,0.5349,0.5348,0.5408,0.541,0.5412,0.5414,0.5545,0.5546,0.5547,0,0,0,0,0,0,0,0,0,0,0,0,0,0.5386,0.5385,0.5359,0.5359,0.536,0.5349,0.5349,0.5348,0.5407,0.541,0.5413,0.5416,0.5544,0.5546,0.5547,0,0,0,0,0,0,0,0,0,0,0,0,0,0.5369,0.5385,0.5359,0.5393,0.5397,0.535,0.5349,0.5348,0.5407,0.541,0.5414,0.5417,0.5544,0.5545,0.5547,0.549,0,0,0.5553,0.5554,0,0,0,0,0,0,0,0,0.537,0.5367,0.5388,0.5391,0.5395,0.5389,0.5406,0.5405,0.5406,0.5396,0.5415,0.5419,0.5507,0.5512,0.5491,0.5496,0.5501,0.5554,0.5555,0.5556,0.5556,0,0,0,0,0,0,0,0.5371,0.5367,0.5348,0.5388,0.5392,0.5395,0.5396,0.5405,0.5429,0.5397,0.5403,0.5411,0.551,0.5489,0.5495,0.5503,0.5554,0.5555,0.5556,0.5557,0.5609,0.5609,0,0,0,0,0,0,0.5384,0.5368,0.5348,0.5348,0.5398,0.5393,0.5393,0.5382,0.5426,0.5437,0.5409,0.5414,0.5484,0.5493,0.55,0.5498,0.5556,0.5557,0.5559,0.5608,0.5609,0.5609,0,0,0,0,0,0,0.5384,0.5381,0.5349,0.5365,0.5363,0.539,0.5375,0.538,0.5378,0.5435,0.5448,0.5406,0.5487,0.5498,0.5526,0.5503,0.5558,0.556,0.5608,0.5608,0.5609,0.5455,0,0,0,0,0,0,0.5384,0.538,0.5359,0.5365,0.5362,0.5313,0.5373,0.5378,0.5381,0.5388,0.5436,0.5451,0.5491,0.5523,0.5528,0.5506,0.5562,0.5608,0.5608,0.5609,0.546,0.545,0.5442,0,0,0,0,0,0.5385,0.5342,0.5357,0.5355,0.5337,0.5312,0.5308,0.5336,0.5377,0.5351,0.5407,0.545,0.5531,0.5523,0.553,0.5508,0.5608,0.5608,0.5609,0.5464,0.5452,0.5442,0,0,0,0,0,0,0.533,0.5345,0.5362,0.5323,0.5318,0.5325,0.5295,0.5329,0.5343,0.5359,0.5431,0.5447,0.5482,0.5514,0.5504,0.5533,0.5584,0.5586,0.5472,0.5461,0.5452,0.546,0.5563,0,0,0,0,0,0.531,0.5288,0.5302,0.5266,0.5258,0.5276,0.5268,0.529,0.5314,0.5323,0.5357,0.5416,0.5479,0.5486,0.5539,0.5515,0.5593,0.5519,0.5509,0.5501,0.5516,0.5635,0.5637,0.561,0.561,0.561,0,0,0.528,0.5284,0.5271,0.5254,0.5245,0.5218,0.5277,0.5252,0.5242,0.5334,0.5314,0.5388,0.5478,0.5482,0.5497,0.5502,0.5537,0.5501,0.5493,0.5514,0.5636,0.5638,0.5641,0.5611,0.5611,0.561,0,0,0.5205,0.5204,0.5162,0.5153,0.5148,0.5159,0.5158,0.5157,0.5166,0.5161,0.5256,0.5316,0.535,0.5415,0.5459,0.5429,0.5509,0.5442,0.5363,0.5476,0.5479,0.5483,0.5522,0.5531,0.5407,0.5407,0.5406,0,0.5164,0.5119,0.5141,0.51,0.5083,0.5136,0.5086,0.5093,0.5107,0.5114,0.5146,0.5265,0.5329,0.539,0.5385,0.5407,0.5465,0.5384,0.5462,0.5468,0.5475,0.5515,0.5527,0.5399,0.54,0.5401,0.5402,0,0.5069,0.5031,0.4996,0.4972,0.4955,0.4912,0.4941,0.4933,0.4964,0.499,0.5048,0.5139,0.5221,0.5243,0.5302,0.5372,0.5393,0.5456,0.548,0.5468,0.5511,0.5526,0.5389,0.5391,0.5394,0.5395,0,0,0.496,0.4936,0.492,0.4887,0.4882,0.4852,0.484,0.4838,0.4845,0.4881,0.4901,0.501,0.5081,0.5142,0.5225,0.5303,0.5375,0.5377,0.5386,0.5396,0.5575,0.5464,0.5471,0.5451,0.5455,0.5457,0.5562,0,0.4866,0.4786,0.4794,0.4703,0.4657,0.4698,0.4681,0.4702,0.4741,0.477,0.4891,0.4956,0.5036,0.5084,0.5176,0.536,0.5419,0.5338,0.5605,0.5612,0.5501,0.5487,0.5185,0.5245,0.5578,0.558,0.5582,0,0.4752,0.4718,0.463,0.4581,0.456,0.4527,0.4522,0.4519,0.4602,0.4636,0.4731,0.4843,0.4976,0.5056,0.5319,0.5264,0.5406,0.5529,0.5537,0.551,0.5531,0.5328,0.5261,0.503,0.5606,0.5604,0.5603,0,0.4666,0.4584,0.4516,0.4496,0.4468,0.4436,0.443,0.4478,0.4478,0.4576,0.4606,0.4778,0.4879,0.51,0.5338,0.5347,0.5621,0.5671,0.5691,0.5682,0.5519,0.549,0.525,0.5858,0.5858,0.5858,0.5857,0,0.456,0.4489,0.4471,0.443,0.4342,0.4356,0.4298,0.4327,0.4384,0.4396,0.4545,0.4609,0.4908,0.5093,0.5313,0.5524,0.5606,0.5678,0.5715,0.5447,0.5413,0.5286,0.5253,0.5862,0.5861,0.586,0.5859,0,0.4469,0.4464,0.437,0.4324,0.4301,0.4245,0.4205,0.4189,0.4253,0.4287,0.4321,0.4506,0.4725,0.4984,0.5331,0.5465,0.5533,0.5754,0.5373,0.5363,0.5139,0.5112,0.4982,0.4878,0.578,0.5778,0.5776,0,0.4421,0.4371,0.429,0.4244,0.4212,0.4142,0.4106,0.4126,0.4126,0.4227,0.4251,0.4437,0.4546,0.4938,0.5218,0.5508,0.5417,0.5383,0.536,0.506,0.5061,0.498,0.4898,0.5062,0.5055,0.5049,0.5044,0,0.432,0.4297,0.4239,0.4151,0.4085,0.3996,0.3955,0.3933,0.3985,0.4006,0.407,0.4155,0.4477,0.4593,0.4932,0.513,0.5052,0.5268,0.5075,0.4565,0.4351,0.4287,0.5021,0.4991,0.4996,0.5,0.5003,0.5005,0.4244,0.419,0.4132,0.4024,0.3953,0.3854,0.374,0.374,0.3699,0.3674,0.3849,0.3841,0.4006,0.4432,0.4567,0.4546,0.4764,0.4465,0.4484,0.4449,0.4242,0.4817,0.4766,0.477,0.4773,0.4776,0.4779,0,0.4128,0.4088,0.4006,0.3858,0.3723,0.3729,0.3627,0.35,0.3401,0.3432,0.3427,0.3411,0.346,0.3623,0.3789,0.3746,0.3711,0.3664,0.3432,0.3425,0.4,0.3851,0.3452,0.3452,0.3452,0.3453,0.3453,0.3453,0.4067,0.3959,0.3909,0.3657,0.3554,0.3307,0.3216,0.3083,0.3031,0.2862,0.2776,0.2842,0.3025,0.3085,0.3012,0.3001,0.2849,0.2751,0.288,0.3181,0.3254,0.3324,0.3166,0.263,0.2629,0.2109,0.2105,0.2101]},{"header":{"parameterUnit":"m.s-1","parameterCategory":2,"la1":30.2991,"la2":30.254,"lo1":-89.0895,"lo2":-89.0444,"dy":0.0017,"dx":0.0017,"nx":28,"ny":28,"refTime":"2023-08-10T03:00:00:Z","depth":"0","parameterNumber":3,"parameterNumberName":"V-component_of_CURRENTS"},"data":[0,0,0,0,0,0,0,0,0,0,0,0,0,0,0,0,0,0,0,0,0,0,0,0,0,0,0,0,0,0,0,0,0,0,0,0,0,0,0,0,0,0,0,0,0,0,0,0,0,0,0,0,0,0,0,0,0,0,0.1135,0.1136,0,0.1269,0.1271,0.1272,0.1362,0.1362,0.1363,0.1363,0.1556,0.156,0.1565,0,0,0,0,0,0,0,0,0,0,0,0,0,0.0925,0.0929,0.1135,0.1136,0.1137,0.1269,0.1271,0.1273,0.1362,0.1362,0.1363,0.1363,0.1554,0.156,0.1566,0,0,0,0,0,0,0,0,0,0,0,0,0,0.1036,0.093,0.1134,0.1195,0.1202,0.1268,0.1271,0.1273,0.1362,0.1362,0.1363,0.1363,0.1552,0.1559,0.1566,0.1601,0,0,0.1589,0.1592,0,0,0,0,0,0,0,0,0.103,0.1044,0.1185,0.1191,0.1199,0.1296,0.1267,0.1385,0.1362,0.1304,0.1363,0.1364,0.1472,0.1486,0.1514,0.161,0.1619,0.1589,0.1594,0.1597,0.1599,0,0,0,0,0,0,0,0.1022,0.1039,0.1191,0.1186,0.1195,0.1205,0.1222,0.129,0.1387,0.131,0.1316,0.1325,0.1477,0.1506,0.1519,0.1621,0.1589,0.1595,0.16,0.1603,0.1838,0.184,0,0,0,0,0,0,0.1001,0.1032,0.1187,0.1195,0.111,0.1208,0.1228,0.1267,0.1386,0.1403,0.1325,0.1329,0.1494,0.151,0.1526,0.1655,0.1597,0.1603,0.1608,0.1836,0.1839,0.1841,0,0,0,0,0,0,0.0996,0.1015,0.1181,0.1111,0.1133,0.1211,0.1255,0.1269,0.131,0.1396,0.1415,0.1351,0.1495,0.1516,0.1628,0.166,0.1607,0.1613,0.1834,0.1837,0.184,0.1861,0,0,0,0,0,0,0.099,0.1013,0.1041,0.1111,0.1136,0.1247,0.1255,0.1272,0.1313,0.132,0.1425,0.1442,0.1497,0.1617,0.1635,0.1669,0.1619,0.1832,0.1836,0.1839,0.1858,0.1865,0.187,0,0,0,0,0,0.0983,0.1033,0.1043,0.1061,0.1172,0.1249,0.1265,0.1321,0.1313,0.1354,0.1429,0.144,0.1651,0.1625,0.1646,0.1683,0.183,0.1834,0.1839,0.1856,0.1863,0.187,0,0,0,0,0,0,0.0977,0.1049,0.106,0.1135,0.1191,0.1263,0.1302,0.132,0.1406,0.1415,0.1479,0.1505,0.1614,0.1644,0.1613,0.176,0.1736,0.1745,0.1742,0.175,0.1756,0.1743,0.1625,0,0,0,0,0,0.0978,0.1031,0.1094,0.1156,0.1178,0.1231,0.1266,0.1303,0.1377,0.1414,0.1482,0.1558,0.1645,0.1693,0.1774,0.1857,0.1823,0.1889,0.1895,0.19,0.1904,0.1872,0.1874,0.1855,0.1855,0.1855,0,0,0.0993,0.1038,0.107,0.1155,0.1198,0.1263,0.1257,0.1321,0.1382,0.1422,0.1532,0.1589,0.1673,0.178,0.1828,0.1811,0.1885,0.1905,0.1909,0.191,0.1876,0.1877,0.1878,0.1858,0.1857,0.1857,0,0,0.1038,0.1085,0.1133,0.1186,0.125,0.1292,0.1305,0.1379,0.142,0.1525,0.1567,0.1641,0.1773,0.1836,0.1884,0.1965,0.1921,0.1984,0.2005,0.1974,0.1974,0.1974,0.1912,0.1906,0.1982,0.1982,0.1982,0,0.104,0.112,0.116,0.1223,0.1266,0.1302,0.1361,0.1422,0.1527,0.156,0.1571,0.1739,0.1802,0.1914,0.1949,0.1978,0.1935,0.1969,0.1977,0.1976,0.1976,0.1912,0.1905,0.1983,0.1983,0.1983,0.1983,0,0.1116,0.1185,0.1221,0.1309,0.1368,0.1427,0.15,0.1559,0.1594,0.1645,0.1751,0.1831,0.1921,0.1949,0.1986,0.2026,0.1987,0.1986,0.1947,0.1978,0.191,0.1902,0.1986,0.1985,0.1985,0.1984,0,0,0.1079,0.1237,0.1243,0.1298,0.141,0.1463,0.1564,0.165,0.1701,0.1788,0.1852,0.198,0.1983,0.2035,0.2066,0.2047,0.2003,0.2014,0.2011,0.1932,0.1898,0.1825,0.1809,0.1989,0.1989,0.1988,0.1843,0,0.1106,0.1228,0.1302,0.142,0.1483,0.1558,0.1646,0.1735,0.1802,0.1881,0.1935,0.2022,0.2028,0.2061,0.2049,0.2038,0.1988,0.204,0.19,0.1895,0.181,0.1801,0.1781,0.1646,0.1835,0.1834,0.1833,0,0.1131,0.121,0.1323,0.1466,0.1495,0.1569,0.1681,0.1771,0.1888,0.1937,0.2011,0.2059,0.2103,0.2076,0.2027,0.2055,0.1972,0.1931,0.1924,0.1845,0.1809,0.1654,0.1625,0.143,0.1821,0.1822,0.1823,0,0.1069,0.1217,0.1301,0.1355,0.1524,0.1569,0.1645,0.1771,0.1846,0.1959,0.2013,0.2071,0.2097,0.2032,0.1978,0.1988,0.1876,0.1877,0.172,0.1713,0.1665,0.1654,0.1416,0.1785,0.1785,0.1785,0.1786,0,0.1071,0.1135,0.1272,0.1328,0.1413,0.1529,0.1622,0.1715,0.1837,0.1934,0.2019,0.2091,0.208,0.2045,0.1967,0.1822,0.1856,0.1712,0.1673,0.1671,0.1663,0.1468,0.142,0.178,0.1781,0.1782,0.1783,0,0.1019,0.1113,0.1217,0.1361,0.1402,0.1459,0.1612,0.1688,0.1795,0.1919,0.1957,0.2078,0.2039,0.1989,0.1882,0.1793,0.1575,0.1595,0.1582,0.1544,0.1224,0.1181,0.0966,0.0939,0.1399,0.1396,0.1394,0,0.1021,0.107,0.1215,0.1274,0.134,0.1435,0.1516,0.1652,0.1745,0.1918,0.1979,0.2,0.2047,0.1869,0.1722,0.1538,0.1441,0.1362,0.1386,0.1181,0.1106,0.1094,0.1089,0.132,0.1317,0.1315,0.1313,0,0.1022,0.1061,0.1149,0.1251,0.1335,0.1447,0.1564,0.1632,0.1801,0.1903,0.2028,0.2074,0.1943,0.1786,0.1539,0.1431,0.1258,0.1308,0.111,0.1029,0.0989,0.0954,0.1416,0.1294,0.1296,0.1297,0.1298,0.1299,0.1014,0.1056,0.1159,0.1249,0.1347,0.1468,0.1539,0.1673,0.1814,0.1965,0.2022,0.2061,0.182,0.1517,0.1344,0.0967,0.107,0.0852,0.0815,0.0817,0.0797,0.1195,0.1027,0.1027,0.1028,0.1028,0.1028,0,0.1026,0.1079,0.1161,0.1282,0.1365,0.1432,0.1586,0.1651,0.1791,0.1921,0.2006,0.1858,0.1539,0.1229,0.0763,0.0512,0.0514,0.0378,0.0355,0.0379,0.0717,0.0718,0.0458,0.0458,0.0459,0.0459,0.0459,0.0459,0.1041,0.111,0.1146,0.127,0.135,0.144,0.1521,0.1622,0.172,0.1795,0.1789,0.1822,0.1604,0.0701,0.0125,0.0036,-0.0076,-0.0109,-0.0153,0.0045,0.0087,0.0127,0.0109,-0.0273,-0.0274,-0.0447,-0.0449,-0.0451]}],[{"header":{"parameterUnit":"m.s-1","parameterCategory":2,"la1":30.2991,"la2":30.254,"lo1":-89.0895,"lo2":-89.0444,"dy":0.0017,"dx":0.0017,"nx":28,"ny":28,"refTime":"2023-08-10T03:00:00:Z","depth":"2","parameterNumber":2,"parameterNumberName":"U-component_of_CURRENTS"},"data":[0,0,0,0,0,0,0,0,0,0,0,0,0,0,0,0,0,0,0,0,0,0,0,0,0,0,0,0,0,0,0,0,0,0,0,0,0,0,0,0,0,0,0,0,0,0,0,0,0,0,0,0,0,0,0,0,0,0,0.2782,0.2786,0,0.3117,0.3121,0.3125,0.3497,0.3502,0.3507,0.3512,0.3686,0.3686,0.3686,0,0,0,0,0,0,0,0,0,0,0,0,0,0.2523,0.2526,0.2782,0.2786,0.279,0.3116,0.3121,0.3126,0.3496,0.3502,0.3508,0.3514,0.3686,0.3686,0.3686,0,0,0,0,0,0,0,0,0,0,0,0,0,0.2729,0.2527,0.2781,0.301,0.3033,0.3115,0.3121,0.3128,0.3495,0.3502,0.351,0.3517,0.3686,0.3686,0.3686,0.3537,0,0,0.3686,0.3686,0,0,0,0,0,0,0,0,0.2716,0.2738,0.2972,0.2994,0.302,0.3268,0.3094,0.3255,0.3493,0.3325,0.3512,0.352,0.3522,0.3536,0.3593,0.3546,0.3553,0.3686,0.3686,0.3686,0.3686,0,0,0,0,0,0,0,0.2702,0.2726,0.292,0.2976,0.3005,0.3115,0.3153,0.3128,0.3379,0.334,0.3367,0.3393,0.3536,0.3592,0.3599,0.3556,0.3686,0.3686,0.3686,0.3686,0.3592,0.359,0,0,0,0,0,0,0.2638,0.2712,0.2909,0.293,0.2878,0.3113,0.3155,0.3185,0.3384,0.3421,0.3386,0.3409,0.3588,0.3598,0.3606,0.3605,0.3686,0.3686,0.3686,0.3594,0.3591,0.3589,0,0,0,0,0,0,0.2631,0.2653,0.2896,0.2825,0.2863,0.3109,0.314,0.3188,0.3327,0.342,0.3457,0.3485,0.3595,0.3606,0.3572,0.3608,0.3686,0.3686,0.3597,0.3593,0.359,0.3495,0,0,0,0,0,0,0.2622,0.2648,0.2669,0.282,0.2864,0.2918,0.3134,0.3189,0.3323,0.3359,0.3511,0.3534,0.3601,0.357,0.3571,0.361,0.3686,0.3601,0.3596,0.3591,0.3502,0.3489,0.3478,0,0,0,0,0,0.2612,0.2604,0.2667,0.2693,0.2878,0.2914,0.2945,0.3151,0.3321,0.3319,0.3419,0.3533,0.3547,0.3563,0.3567,0.3607,0.3603,0.3597,0.3592,0.3507,0.3491,0.3478,0,0,0,0,0,0,0.2544,0.2644,0.2718,0.2756,0.2812,0.2975,0.304,0.3158,0.3251,0.3334,0.3443,0.3461,0.3481,0.3504,0.3523,0.3563,0.3615,0.3609,0.355,0.3535,0.3524,0.3558,0.3686,0,0,0,0,0,0.2514,0.2528,0.2623,0.2656,0.2698,0.2873,0.2937,0.3057,0.3151,0.3218,0.3303,0.3396,0.344,0.3455,0.349,0.3442,0.349,0.3485,0.3473,0.3463,0.3488,0.3547,0.3545,0.357,0.357,0.357,0,0,0.2509,0.2558,0.2581,0.2638,0.275,0.2784,0.2937,0.3034,0.3074,0.3197,0.3283,0.335,0.3417,0.3417,0.3429,0.3449,0.3463,0.3455,0.3447,0.3479,0.3541,0.354,0.3538,0.3566,0.3567,0.3567,0,0,0.248,0.2546,0.2554,0.2586,0.2692,0.2757,0.2779,0.2924,0.3014,0.3026,0.3173,0.3219,0.327,0.3326,0.3364,0.3276,0.3408,0.3329,0.3286,0.3341,0.3341,0.3342,0.3334,0.3336,0.3311,0.331,0.331,0,0.2501,0.2512,0.2554,0.2574,0.2623,0.2742,0.2774,0.2828,0.2932,0.2977,0.3042,0.3201,0.3236,0.3283,0.3274,0.3261,0.3305,0.3341,0.333,0.3332,0.3335,0.3328,0.3331,0.3305,0.3306,0.3306,0.3307,0,0.2462,0.2504,0.252,0.2573,0.2584,0.2635,0.2687,0.2716,0.2835,0.2916,0.3002,0.3047,0.3165,0.3173,0.32,0.3251,0.3277,0.3321,0.3377,0.3328,0.3321,0.3326,0.3298,0.3299,0.3301,0.3302,0,0,0.2514,0.2499,0.253,0.2546,0.2611,0.2615,0.263,0.2672,0.2746,0.2821,0.292,0.2973,0.3088,0.3133,0.3194,0.3211,0.3219,0.3275,0.328,0.3285,0.3321,0.3037,0.3015,0.3294,0.3295,0.3297,0.3286,0,0.2531,0.2509,0.2506,0.2528,0.2547,0.2598,0.259,0.2633,0.2709,0.2792,0.289,0.3008,0.3048,0.314,0.3163,0.3257,0.3241,0.3217,0.3356,0.3358,0.3128,0.3014,0.2858,0.2812,0.3292,0.3293,0.3293,0,0.2517,0.2523,0.2518,0.2511,0.2534,0.2562,0.2608,0.2609,0.2705,0.2782,0.2918,0.303,0.312,0.3152,0.3263,0.327,0.3283,0.3305,0.3307,0.3094,0.3083,0.2951,0.2804,0.3302,0.3301,0.3301,0.33,0,0.2489,0.2522,0.2505,0.2521,0.2535,0.2578,0.2602,0.2665,0.2705,0.283,0.292,0.3052,0.3177,0.3235,0.3309,0.3316,0.34,0.3414,0.3141,0.3121,0.3037,0.3003,0.3432,0.3432,0.3432,0.3432,0.3432,0,0.2462,0.2482,0.2526,0.2541,0.2597,0.2597,0.2689,0.2704,0.2809,0.2883,0.297,0.3079,0.322,0.3297,0.3319,0.324,0.3418,0.3104,0.3093,0.2981,0.2945,0.3436,0.3437,0.3432,0.3432,0.3432,0.3432,0,0.242,0.2425,0.245,0.2529,0.2583,0.2634,0.2775,0.282,0.2895,0.3,0.3056,0.3165,0.3227,0.3275,0.3361,0.3229,0.3191,0.3106,0.2917,0.2875,0.2861,0.2857,0.2768,0.2758,0.2749,0.2742,0.2736,0,0.2363,0.2371,0.248,0.2552,0.2635,0.2752,0.2828,0.2895,0.2938,0.3051,0.3081,0.3176,0.3192,0.3135,0.2906,0.2762,0.3022,0.2544,0.2461,0.2791,0.2791,0.2801,0.2808,0.2321,0.2312,0.2305,0.2299,0,0.2357,0.2414,0.2474,0.2613,0.2733,0.2787,0.2902,0.2925,0.2971,0.305,0.3116,0.314,0.2957,0.2718,0.2439,0.2341,0.2538,0.237,0.2853,0.2455,0.2352,0.2357,0.2384,0.2233,0.224,0.2245,0.2248,0.2251,0.2431,0.2456,0.2565,0.2688,0.2803,0.2802,0.2808,0.2841,0.2869,0.2837,0.2972,0.2862,0.2635,0.204,0.1939,0.1814,0.1882,0.1898,0.1931,0.197,0.1861,0.1742,0.1488,0.149,0.1492,0.1494,0.1495,0,0.2513,0.2546,0.2632,0.2722,0.2795,0.2869,0.2839,0.2736,0.2687,0.2631,0.263,0.218,0.1912,0.1828,0.1444,0.123,0.1305,0.1319,0.1532,0.1589,0.1643,0.1531,0.1064,0.1064,0.1064,0.1064,0,0,0.257,0.2646,0.2629,0.2725,0.2802,0.2755,0.2703,0.2504,0.2357,0.2156,0.204,0.1865,0.1747,0.1385,0.1239,0.1209,0.1433,0.1152,0.1483,0.1798,0.1854,0.1924,0.1804,0,0,0,0,0]},{"header":{"parameterUnit":"m.s-1","parameterCategory":2,"la1":30.2991,"la2":30.254,"lo1":-89.0895,"lo2":-89.0444,"dy":0.0017,"dx":0.0017,"nx":28,"ny":28,"refTime":"2023-08-10T03:00:00:Z","depth":"2","parameterNumber":3,"parameterNumberName":"V-component_of_CURRENTS"},"data":[0,0,0,0,0,0,0,0,0,0,0,0,0,0,0,0,0,0,0,0,0,0,0,0,0,0,0,0,0,0,0,0,0,0,0,0,0,0,0,0,0,0,0,0,0,0,0,0,0,0,0,0,0,0,0,0,0,0,-0.0129,-0.0128,0,0.0006,0.0008,0.0011,0.0075,0.0075,0.0074,0.0073,0.0084,0.0085,0.0086,0,0,0,0,0,0,0,0,0,0,0,0,0,-0.0262,-0.026,-0.0129,-0.0128,-0.0127,0.0006,0.0009,0.0011,0.0076,0.0075,0.0074,0.0073,0.0084,0.0085,0.0086,0,0,0,0,0,0,0,0,0,0,0,0,0,-0.0167,-0.0259,-0.0129,-0.0084,-0.0079,0.0005,0.0009,0.0012,0.0076,0.0075,0.0074,0.0073,0.0084,0.0085,0.0086,0.0115,0,0,0.009,0.0091,0,0,0,0,0,0,0,0,-0.0172,-0.0161,-0.0091,-0.0087,-0.0081,0.0017,-0.0035,0.0038,0.0076,0.0024,0.0073,0.0072,0.0046,0.0051,0.009,0.0116,0.0116,0.0091,0.0091,0.0092,0.0092,0,0,0,0,0,0,0,-0.0179,-0.0166,-0.0068,-0.009,-0.0084,-0.0047,-0.0034,-0.0019,0.0042,0.0029,0.0032,0.0037,0.0049,0.0089,0.009,0.0116,0.0091,0.0092,0.0093,0.0093,0.0162,0.0163,0,0,0,0,0,0,-0.0212,-0.0172,-0.0073,-0.0065,-0.0138,-0.0045,-0.003,-0.0008,0.0045,0.0051,0.0037,0.0039,0.0087,0.0089,0.0091,0.0164,0.0092,0.0093,0.0094,0.0161,0.0162,0.0163,0,0,0,0,0,0,-0.0215,-0.0203,-0.0078,-0.0122,-0.0105,-0.0042,-0.0017,-0.0005,0.005,0.0052,0.0057,0.008,0.0086,0.0089,0.0105,0.0163,0.0094,0.0095,0.016,0.0161,0.0163,0.0287,0,0,0,0,0,0,-0.0219,-0.0204,-0.0188,-0.0124,-0.0104,-0.0018,-0.0016,-0.0002,0.005,0.0054,0.0089,0.0089,0.0086,0.0103,0.0107,0.0164,0.0096,0.0159,0.0161,0.0162,0.0282,0.0293,0.0302,0,0,0,0,0,-0.0223,-0.0184,-0.0187,-0.0175,-0.0086,-0.0017,-0.0001,0.0043,0.0053,0.0089,0.0096,0.0089,0.0118,0.0105,0.0109,0.0168,0.0158,0.016,0.0162,0.0277,0.0291,0.0302,0,0,0,0,0,0,-0.0212,-0.0173,-0.0175,-0.0121,-0.0078,-0.0009,0.0034,0.0057,0.0102,0.0101,0.0103,0.0104,0.0143,0.0126,0.0112,0.0188,0.0137,0.014,0.0223,0.0235,0.0245,0.0249,0.0097,0,0,0,0,0,-0.0212,-0.0184,-0.0141,-0.0098,-0.0074,-0.0019,0.0018,0.0043,0.0081,0.0104,0.0121,0.0132,0.0157,0.0169,0.0179,0.0222,0.0158,0.0257,0.0268,0.0277,0.0279,0.0219,0.0224,0.0171,0.0171,0.0171,0,0,-0.0195,-0.0174,-0.0154,-0.0097,-0.0054,0.0015,0.0005,0.0066,0.0125,0.0092,0.0173,0.0168,0.0172,0.0223,0.0239,0.0217,0.0256,0.0279,0.0288,0.0285,0.0222,0.0227,0.0232,0.0172,0.0172,0.0172,0,0,-0.0143,-0.0126,-0.0083,-0.0038,0.0011,0.0046,0.0064,0.0131,0.0164,0.0222,0.0216,0.0234,0.0278,0.0295,0.0309,0.0375,0.0309,0.0384,0.0451,0.0394,0.0398,0.04,0.0319,0.0313,0.0394,0.0394,0.0394,0,-0.0131,-0.0063,-0.0056,0.0008,0.0056,0.0065,0.0142,0.0188,0.0247,0.0277,0.0253,0.0323,0.0318,0.0391,0.0413,0.0404,0.0341,0.0414,0.0408,0.0409,0.0409,0.0325,0.0317,0.04,0.0399,0.0399,0.0398,0,-0.0034,0.0022,0.0062,0.0136,0.0186,0.0253,0.0299,0.0343,0.0366,0.0404,0.0462,0.0448,0.0484,0.0496,0.048,0.0508,0.0451,0.0425,0.038,0.0422,0.033,0.032,0.0409,0.0407,0.0405,0.0403,0,0,-0.0012,0.0102,0.0114,0.0166,0.0258,0.0306,0.0398,0.048,0.0544,0.0567,0.0648,0.0672,0.0645,0.0654,0.0633,0.059,0.0537,0.0515,0.0509,0.044,0.0383,0.0376,0.0363,0.0506,0.0505,0.0504,0.0315,0,0.0062,0.0177,0.0227,0.0353,0.0426,0.0468,0.0554,0.0619,0.0666,0.0737,0.0724,0.0777,0.0715,0.0726,0.068,0.0599,0.0516,0.0589,0.0347,0.0339,0.0333,0.0354,0.0349,0.0183,0.0304,0.0302,0.0301,0,0.014,0.0209,0.0329,0.0451,0.0488,0.0559,0.0675,0.0752,0.0843,0.0878,0.0916,0.091,0.0903,0.081,0.0662,0.0711,0.0541,0.0442,0.0432,0.0375,0.0314,0.016,0.0158,0.0282,0.0283,0.0285,0.0286,0,0.013,0.0278,0.0362,0.0413,0.0555,0.0609,0.0677,0.0786,0.0869,0.0953,0.1017,0.1003,0.1002,0.0827,0.0663,0.0641,0.0467,0.0405,0.022,0.0215,0.0139,0.0131,0.0222,0.0222,0.0222,0.0223,0.0223,0,0.0185,0.0253,0.0358,0.0414,0.0527,0.061,0.0743,0.0808,0.0933,0.1052,0.1067,0.1145,0.0998,0.0914,0.07,0.0469,0.0483,0.0229,0.0175,0.0182,0.0181,0.0212,0.0214,0.0216,0.0217,0.0219,0.022,0,0.0166,0.0233,0.0337,0.0476,0.0525,0.0592,0.0778,0.0882,0.098,0.1132,0.1161,0.1238,0.1139,0.0971,0.0714,0.0528,0.0295,0.0175,0.0198,0.0152,0.005,0.006,-0.0068,-0.007,-0.0071,-0.0072,-0.0073,0,0.0166,0.022,0.0359,0.0432,0.0498,0.0627,0.0738,0.0877,0.0995,0.1196,0.1263,0.126,0.1274,0.0953,0.0634,0.0271,0.0248,0.002,-0.0028,0.0064,0.0023,0.0036,0.0047,-0.0105,-0.0106,-0.0107,-0.0108,0,0.0193,0.0224,0.0315,0.0456,0.0567,0.0714,0.0866,0.0967,0.1146,0.1286,0.1443,0.1472,0.1216,0.0908,0.0473,0.0245,0.01,-0.0014,0.0075,0.0,0.0023,-0.0014,-0.0001,-0.0116,-0.0115,-0.0115,-0.0114,-0.0114,0.0207,0.0256,0.0375,0.0497,0.0649,0.0803,0.0921,0.1084,0.1274,0.1445,0.1482,0.1463,0.1089,0.0503,0.0244,0.0012,-0.0024,-0.0176,-0.0171,-0.0166,-0.0105,-0.0082,-0.0233,-0.0233,-0.0233,-0.0232,-0.0232,0,0.0244,0.0305,0.0428,0.0587,0.0751,0.0839,0.1034,0.113,0.1337,0.1404,0.1489,0.1084,0.076,0.0449,0.0061,-0.0208,-0.0192,-0.0242,-0.0201,-0.0194,-0.0187,-0.0123,-0.0259,-0.0259,-0.0259,-0.0259,0,0,0.0272,0.0371,0.042,0.0652,0.0801,0.0995,0.1114,0.1219,0.1265,0.1328,0.1271,0.1057,0.0684,0.0331,0.0037,-0.0076,-0.0059,-0.0085,-0.0054,0.0034,0.0045,-0.0155,-0.0051,0,0,0,0,0]}],[{"header":{"parameterUnit":"m.s-1","parameterCategory":2,"la1":30.2991,"la2":30.254,"lo1":-89.0895,"lo2":-89.0444,"dy":0.0017,"dx":0.0017,"nx":28,"ny":28,"refTime":"2023-08-10T03:00:00:Z","depth":"4","parameterNumber":2,"parameterNumberName":"U-component_of_CURRENTS"},"data":[0,0,0,0,0,0,0,0,0,0,0,0,0,0,0,0,0,0,0,0,0,0,0,0,0,0,0,0,0,0,0,0,0,0,0,0,0,0,0,0,0,0,0,0,0,0,0,0,0,0,0,0,0,0,0,0,0,0,0.0117,0.0118,0,0.0231,0.0233,0.0234,0.0356,0.0358,0.036,0.0362,0.0442,0.0442,0.0443,0,0,0,0,0,0,0,0,0,0,0,0,0,0.0012,0.0013,0.0117,0.0118,0.012,0.0231,0.0233,0.0234,0.0356,0.0358,0.036,0.0362,0.0442,0.0442,0.0443,0,0,0,0,0,0,0,0,0,0,0,0,0,0.0085,0.0014,0.0117,0.0194,0.0202,0.0231,0.0233,0.0235,0.0356,0.0358,0.0361,0.0363,0.0441,0.0442,0.0443,0.0395,0,0,0.0445,0.0446,0,0,0,0,0,0,0,0,0.0081,0.0089,0.0181,0.0189,0.0198,0.0282,0.0225,0.0287,0.0355,0.0297,0.0362,0.0365,0.0383,0.0389,0.0405,0.0399,0.0402,0.0445,0.0446,0.0446,0.0446,0,0,0,0,0,0,0,0.0076,0.0085,0.0162,0.0183,0.0193,0.0226,0.0239,0.0238,0.0323,0.0303,0.0312,0.0324,0.0388,0.0404,0.0408,0.0404,0.0445,0.0446,0.0446,0.0447,0.0506,0.0507,0,0,0,0,0,0,0.0058,0.0079,0.0159,0.0166,0.0145,0.0225,0.024,0.0253,0.0325,0.0339,0.0321,0.0329,0.0402,0.0407,0.0411,0.0503,0.0446,0.0447,0.0447,0.0505,0.0506,0.0507,0,0,0,0,0,0,0.0055,0.0064,0.0154,0.0125,0.0139,0.0224,0.0237,0.0253,0.0338,0.0339,0.0353,0.0397,0.0404,0.041,0.0475,0.0501,0.0447,0.0448,0.0503,0.0505,0.0507,0.0593,0,0,0,0,0,0,0.0052,0.0062,0.0094,0.0124,0.014,0.0215,0.0235,0.0254,0.0337,0.035,0.0407,0.0414,0.0406,0.0474,0.0476,0.0501,0.0448,0.0502,0.0504,0.0506,0.0588,0.0597,0.0604,0,0,0,0,0,0.0048,0.0075,0.0095,0.0106,0.0172,0.0217,0.023,0.0298,0.0339,0.0383,0.0429,0.0416,0.0488,0.0477,0.0478,0.0504,0.0501,0.0504,0.0506,0.0585,0.0595,0.0604,0,0,0,0,0,0,0.0054,0.009,0.0113,0.0154,0.0202,0.0239,0.0294,0.0331,0.0403,0.0438,0.044,0.0449,0.0505,0.0495,0.0482,0.0525,0.0487,0.049,0.0546,0.0556,0.0564,0.0578,0.0449,0,0,0,0,0,0.0063,0.0097,0.0133,0.0175,0.0204,0.0259,0.0299,0.0346,0.0396,0.0436,0.0477,0.0504,0.0502,0.0529,0.0532,0.0567,0.0506,0.058,0.0588,0.0595,0.0607,0.0501,0.0499,0.0516,0.0515,0.0515,0,0,0.0074,0.0103,0.0123,0.018,0.0228,0.0282,0.0294,0.0375,0.0433,0.0426,0.0543,0.0539,0.0516,0.0555,0.0578,0.0563,0.0566,0.0598,0.0605,0.0613,0.0503,0.0501,0.0499,0.0517,0.0517,0.0517,0,0,0.0107,0.0147,0.0189,0.0233,0.0314,0.0343,0.0379,0.0457,0.0515,0.0604,0.0592,0.0612,0.0665,0.063,0.0616,0.0666,0.0605,0.0679,0.0744,0.064,0.0637,0.0634,0.0581,0.0572,0.0691,0.0691,0.0691,0,0.0135,0.0183,0.0212,0.027,0.0323,0.0378,0.0446,0.0494,0.0591,0.0618,0.0667,0.0687,0.0686,0.0655,0.0696,0.0682,0.0638,0.071,0.0648,0.0644,0.0639,0.0585,0.0574,0.0696,0.0695,0.0695,0.0694,0,0.0184,0.0249,0.0285,0.037,0.0426,0.05,0.0557,0.0631,0.0711,0.0739,0.0782,0.0775,0.0784,0.0774,0.0772,0.073,0.0716,0.0661,0.0621,0.0642,0.0585,0.0572,0.0702,0.0701,0.0699,0.0698,0,0,0.0198,0.03,0.0327,0.0389,0.0495,0.0547,0.0632,0.07,0.0746,0.0827,0.0856,0.087,0.0874,0.0856,0.0823,0.0756,0.0705,0.0732,0.0724,0.0677,0.0521,0.0536,0.0523,0.0641,0.0638,0.0637,0.0504,0,0.0252,0.0366,0.0403,0.0533,0.0603,0.0665,0.0728,0.0792,0.0848,0.0887,0.0856,0.0885,0.0896,0.0914,0.0849,0.0721,0.0673,0.0749,0.0512,0.0506,0.0511,0.0508,0.0629,0.0494,0.0491,0.0489,0.0487,0,0.0302,0.0376,0.0507,0.0618,0.0656,0.074,0.0845,0.0908,0.0928,0.0967,0.0972,0.0953,0.09,0.09,0.0717,0.0773,0.069,0.0588,0.0578,0.0553,0.0495,0.0461,0.0462,0.0464,0.0466,0.0468,0.0469,0,0.0315,0.0452,0.0565,0.0613,0.0737,0.0817,0.0894,0.095,0.0989,0.1025,0.1033,0.097,0.0938,0.0809,0.0653,0.0699,0.0404,0.0417,0.0348,0.0349,0.0335,0.0339,0.029,0.029,0.0291,0.0291,0.0291,0,0.0352,0.0447,0.0596,0.0664,0.0791,0.0873,0.0984,0.1039,0.1074,0.1041,0.1093,0.0991,0.0915,0.0742,0.0625,0.0432,0.0378,0.0365,0.0307,0.0381,0.0392,0.0327,0.0333,0.0286,0.0287,0.0288,0.0289,0,0.0349,0.0447,0.0583,0.0747,0.0809,0.0916,0.1056,0.1088,0.1149,0.1097,0.1112,0.1011,0.0814,0.0694,0.0434,0.0393,0.0195,0.0136,0.0234,0.0181,0.0241,0.0254,0.0114,0.0113,0.0112,0.0112,0.0111,0,0.0353,0.0429,0.0641,0.0726,0.0823,0.0974,0.1041,0.1137,0.1116,0.1017,0.0928,0.0811,0.0715,0.039,0.0263,0.0099,0.0083,0.0047,0.0188,0.0262,0.0219,0.0232,0.0245,0.011,0.011,0.011,0.011,0,0.035,0.045,0.055,0.0721,0.0846,0.0937,0.1017,0.0977,0.097,0.103,0.0794,0.0696,0.0475,0.032,0.0227,0.0067,0.0112,0.0041,0.0045,0.0178,0.0256,0.0217,0.023,0.0108,0.0108,0.0108,0.0108,0,0.035,0.0409,0.0551,0.0688,0.0826,0.0838,0.0889,0.0841,0.0845,0.0745,0.0597,0.045,0.0391,0.0284,0.0095,0.0063,0.0111,0.0155,0.0155,0.0156,0.0232,0.0342,0.0167,0,0,0,0,0,0.0344,0.0386,0.0497,0.0622,0.0741,0.0803,0.0825,0.0829,0.0767,0.0627,0.0651,0.0445,0.03,0.0184,0.0162,0.0084,0.0078,0.0058,0.0123,0.0095,0.0098,0.0184,0,0,0,0,0,0,0.0332,0.0429,0.0462,0.0534,0.0585,0.0667,0.0661,0.0612,0.054,0.05,0.0416,0.0477,0.0319,0.0325,0.0167,0.015,0.0198,0.002,0.0021,0.0094,0.0096,0.0098,0.0187,0,0,0,0,0]},{"header":{"parameterUnit":"m.s-1","parameterCategory":2,"la1":30.2991,"la2":30.254,"lo1":-89.0895,"lo2":-89.0444,"dy":0.0017,"dx":0.0017,"nx":28,"ny":28,"refTime":"2023-08-10T03:00:00:Z","depth":"4","parameterNumber":3,"parameterNumberName":"V-component_of_CURRENTS"},"data":[0,0,0,0,0,0,0,0,0,0,0,0,0,0,0,0,0,0,0,0,0,0,0,0,0,0,0,0,0,0,0,0,0,0,0,0,0,0,0,0,0,0,0,0,0,0,0,0,0,0,0,0,0,0,0,0,0,0,0.0265,0.0263,0,0.0086,0.0083,0.0081,-0.0006,-0.0005,-0.0005,-0.0005,-0.0271,-0.0278,-0.0285,0,0,0,0,0,0,0,0,0,0,0,0,0,0.0375,0.0374,0.0265,0.0263,0.0261,0.0086,0.0083,0.0081,-0.0006,-0.0005,-0.0005,-0.0005,-0.0268,-0.0277,-0.0286,0,0,0,0,0,0,0,0,0,0,0,0,0,0.0272,0.0374,0.0266,0.02,0.0192,0.0087,0.0083,0.008,-0.0006,-0.0005,-0.0005,-0.0004,-0.0265,-0.0276,-0.0287,-0.0366,0,0,-0.0321,-0.0326,0,0,0,0,0,0,0,0,0.0278,0.0268,0.0211,0.0204,0.0195,0.0066,0.0025,-0.0072,-0.0006,0.0066,-0.0005,-0.0004,-0.0164,-0.0184,-0.0222,-0.0379,-0.039,-0.0322,-0.0329,-0.0333,-0.0337,0,0,0,0,0,0,0,0.0286,0.0274,0.0191,0.0209,0.02,0.0125,0.0112,0.0005,-0.0054,0.006,0.0054,0.0039,-0.017,-0.0211,-0.0229,-0.0394,-0.0322,-0.0332,-0.0338,-0.0343,-0.0664,-0.0666,0,0,0,0,0,0,0.0322,0.0282,0.0197,0.0186,0.0243,0.0124,0.0109,0.0104,-0.0051,-0.0073,0.0039,0.0036,-0.0192,-0.0216,-0.0239,-0.0386,-0.0333,-0.0344,-0.035,-0.0662,-0.0665,-0.0667,0,0,0,0,0,0,0.0325,0.0317,0.0204,0.0231,0.0212,0.0123,0.0117,0.0101,0.0037,-0.0066,-0.009,-0.0009,-0.0193,-0.0223,-0.0363,-0.0395,-0.0349,-0.0359,-0.066,-0.0663,-0.0666,-0.0653,0,0,0,0,0,0,0.0329,0.0319,0.0318,0.0235,0.0212,0.0121,0.0116,0.0097,0.003,0.0023,-0.0115,-0.0137,-0.0195,-0.0346,-0.0374,-0.041,-0.0368,-0.0658,-0.0662,-0.0665,-0.0651,-0.0655,-0.0658,0,0,0,0,0,0.0334,0.032,0.032,0.0309,0.0219,0.0119,0.0099,0.0035,0.0027,-0.0018,-0.0108,-0.0134,-0.0386,-0.0358,-0.039,-0.0429,-0.0656,-0.066,-0.0665,-0.0649,-0.0654,-0.0658,0,0,0,0,0,0,0.0355,0.0308,0.0306,0.0278,0.0202,0.0105,0.006,0.0021,-0.0086,-0.0097,-0.0182,-0.0214,-0.034,-0.0394,-0.0359,-0.053,-0.0517,-0.0528,-0.0494,-0.05,-0.0503,-0.0467,-0.0377,0,0,0,0,0,0.0369,0.0351,0.0284,0.0256,0.0224,0.0142,0.0093,0.0045,-0.0051,-0.0097,-0.019,-0.0287,-0.038,-0.0446,-0.0539,-0.0655,-0.0641,-0.0693,-0.0697,-0.0699,-0.0692,-0.0699,-0.0702,-0.0681,-0.0681,-0.0681,0,0,0.0369,0.034,0.033,0.026,0.02,0.0127,0.0111,0.0024,-0.0046,-0.0113,-0.0245,-0.0315,-0.0414,-0.0531,-0.059,-0.0584,-0.0696,-0.0705,-0.0706,-0.0697,-0.0704,-0.0705,-0.0707,-0.0684,-0.0683,-0.0683,0,0,0.0343,0.0335,0.0304,0.0243,0.0158,0.0101,0.0075,-0.0035,-0.0091,-0.0219,-0.027,-0.0355,-0.0523,-0.0583,-0.0635,-0.072,-0.0713,-0.0754,-0.0755,-0.0762,-0.0763,-0.0763,-0.0724,-0.0721,-0.0757,-0.0757,-0.0757,0,0.0345,0.0307,0.0271,0.0212,0.0162,0.009,0.0023,-0.0056,-0.0201,-0.0244,-0.0262,-0.0457,-0.0539,-0.0651,-0.0674,-0.0726,-0.0712,-0.0727,-0.0762,-0.0763,-0.0763,-0.0723,-0.072,-0.0757,-0.0757,-0.0757,-0.0757,0,0.029,0.0252,0.0218,0.014,0.0073,-0.0002,-0.0094,-0.0175,-0.0236,-0.0298,-0.0418,-0.0515,-0.0614,-0.0656,-0.07,-0.0757,-0.0737,-0.0758,-0.0738,-0.0763,-0.0721,-0.0718,-0.0757,-0.0757,-0.0757,-0.0757,0,0,0.0315,0.0208,0.0197,0.0154,0.0033,-0.0029,-0.0139,-0.0246,-0.03,-0.0413,-0.0476,-0.0616,-0.0629,-0.0686,-0.074,-0.0755,-0.0742,-0.0759,-0.0759,-0.0695,-0.0721,-0.0691,-0.0684,-0.0768,-0.0768,-0.0768,-0.0679,0,0.0282,0.0191,0.0136,0.0029,-0.003,-0.0116,-0.0203,-0.0305,-0.0386,-0.0469,-0.0537,-0.0618,-0.0653,-0.0684,-0.0711,-0.0749,-0.0738,-0.0761,-0.0727,-0.0725,-0.0676,-0.0682,-0.0768,-0.0676,-0.0675,-0.0675,-0.0674,0,0.0247,0.0192,0.0105,-0.0007,-0.0038,-0.0102,-0.0222,-0.0309,-0.0424,-0.0478,-0.0549,-0.0608,-0.0669,-0.0676,-0.0714,-0.0728,-0.0715,-0.0722,-0.0719,-0.0693,-0.0691,-0.0656,-0.0668,-0.0669,-0.0669,-0.067,-0.067,0,0.0287,0.0167,0.011,0.0067,-0.0068,-0.0108,-0.0172,-0.0293,-0.0351,-0.0452,-0.0484,-0.0581,-0.0604,-0.0631,-0.0644,-0.0684,-0.064,-0.0699,-0.0646,-0.0641,-0.0696,-0.0697,-0.0683,-0.0683,-0.0684,-0.0684,-0.0684,0,0.0269,0.0216,0.0138,0.0103,0.0042,-0.0054,-0.0117,-0.0203,-0.029,-0.0345,-0.0451,-0.0499,-0.0592,-0.0598,-0.0616,-0.0599,-0.0607,-0.0631,-0.0623,-0.0692,-0.0694,-0.0691,-0.0694,-0.068,-0.0681,-0.0682,-0.0682,0,0.0287,0.024,0.0173,0.0078,0.0059,0.0024,-0.0056,-0.0111,-0.0183,-0.0251,-0.0272,-0.0411,-0.0452,-0.0492,-0.0521,-0.0541,-0.0536,-0.0507,-0.0517,-0.0513,-0.0542,-0.0545,-0.0491,-0.049,-0.0488,-0.0487,-0.0486,0,0.0271,0.0248,0.0188,0.0173,0.0136,0.0091,0.0049,-0.004,-0.0093,-0.0201,-0.0233,-0.0296,-0.0384,-0.0381,-0.044,-0.044,-0.0449,-0.0417,-0.0554,-0.0528,-0.0526,-0.0531,-0.0536,-0.0484,-0.0484,-0.0483,-0.0483,0,0.0237,0.0242,0.0194,0.0191,0.0166,0.0114,0.0064,0.0037,-0.0071,-0.0104,-0.0205,-0.0273,-0.0313,-0.0391,-0.0349,-0.0365,-0.0447,-0.0404,-0.041,-0.0539,-0.0518,-0.0519,-0.0525,-0.0478,-0.0479,-0.0479,-0.0479,0,0.022,0.0193,0.0173,0.0163,0.0162,0.0114,0.0081,0.0009,-0.0044,-0.0152,-0.0165,-0.0252,-0.03,-0.0345,-0.0317,-0.0322,-0.0386,-0.0409,-0.0417,-0.0422,-0.0452,-0.0418,-0.0328,0,0,0,0,0,0.0191,0.0157,0.0138,0.01,0.012,0.0111,0.0063,0.0022,-0.0035,-0.0098,-0.014,-0.0186,-0.0252,-0.0297,-0.0303,-0.0321,-0.038,-0.033,-0.0409,-0.0451,-0.0457,-0.0504,0,0,0,0,0,0,0.0149,0.0135,0.0112,0.0083,0.0068,0.0037,0.0014,-0.0042,-0.0084,-0.0123,-0.0158,-0.0173,-0.0231,-0.0235,-0.0297,-0.0304,-0.0355,-0.0354,-0.0354,-0.0448,-0.0453,-0.0458,-0.0508,0,0,0,0,0]}]]